{"data":{"norad_id":66838,"intl_designator":"2025-280T","name":"STARLINK-35886","alt_names":[],"object_type":"PAYLOAD","status":"ACTIVE","operator":null,"country":"US","launch_date":"2025-12-02","launch_site_code":"AFWTR","launch_vehicle":null,"mission":null,"orbit_class":"UNKNOWN","rcs_meters":null,"size_class":null,"mass_kg":null,"dimensions":null,"purposes":["comms"],"wikipedia_slug":null,"has_3d_model":false,"image_url":null,"decayed_at":null,"tle_current":{"epoch":"2026-09-20T06:16:31.643904Z","epoch_age_seconds":104725,"freshness":"FRESH","line1":"1 66838U 25280T   26263.26147736  .00003910  00000+0  33522-3 0  9993","line2":"2 66838  70.0011 203.7569 0002778 271.2188  88.8652 14.98340296 45223","mean_motion":14.98340296,"eccentricity":0.0002778,"inclination_deg":70.0011,"raan_deg":203.7569,"arg_perigee_deg":271.2188,"mean_anomaly_deg":88.8652,"bstar":0.00033522,"rev_number":4522,"period_min":96.106338716529,"perigee_km":570.09329685593,"apogee_km":573.95480633619,"semimajor_km":6950.1610515961,"source":"CELESTRAK","updated_at":"2026-09-21T09:00:36.023017Z"}}}